Flag for United Kingdom Weather past 2 weeks in Bradford, England, United Kingdom

Now
59 °F

Sunny.


Feels Like: 58 °F
Forecast: 58 / 70 °F
Wind: 8 mph from East

Location: Leeds And Bradford

Current Time: Jul 1, 2015 at 6:51:34 AM

Latest Report: Jul 1, 2015 at 6:20 AM


Visibility: 10 mi

Pressure: 29.95 "Hg

Humidity: 88%

Dew point: 55 °F

Location of BradfordLocation

Historic Weather in Bradford — Graph

°F

Bradford temperature yesterday

Maximum temperature yesterday: 81 °F (at 3:20 PM)
Minimum temperature yesterday: 57 °F (at 4:20 AM)
Average temperature yesterday: 69 °F

Past Weeks' High & Low Weather Summary

 TemperatureHumidityPressure
High81 °F (Jun 30, 3:20 PM)100% (Jun 17, 6:50 AM)30.27 "Hg (Jun 17, 6:50 AM)
Low45 °F (Jun 18, 4:20 AM)46% (Jun 27, 4:20 PM)29.77 "Hg (Jun 22, 4:20 AM)
Average57 °F80%30.05 "Hg
* Reported Jun 16 5:20 AM — Jul 1 5:20 AM, Bradford, Weather by CustomWeather, © 2015

Note: Actual official high and low records may vary slightly from our data, if they occured in-between our weather recording intervals... More about our weather records

Advertising

Bradford weather history for previous 24 hours

 ConditionsComfort  
Time TempWeatherWind HumidityBarometerVisibility
5:20 AM
Wed, Jul 1
55 °FClear.6 mph94%29.98 "Hg10 mi
4:50 AM55 °FClear.8 mph94%29.98 "Hg10 mi
4:20 AM57 °FClear.3 mph88%29.98 "Hg10 mi
3:50 AM57 °FClear.6 mph88%29.98 "Hg10 mi
3:20 AM57 °FClear.6 mph94%29.98 "Hg10 mi
2:50 AM57 °FClear.5 mph94%30.01 "Hg10 mi
2:20 AM59 °FPassing clouds.5 mph88%30.01 "HgN/A
1:50 AM61 °FClear.8 mph83%30.01 "Hg10 mi
1:20 AM63 °FClear.9 mph77%30.01 "Hg10 mi
12:50 AM63 °FClear.9 mph77%30.01 "Hg10 mi
12:20 AM63 °FClear.9 mph77%30.01 "Hg10 mi
11:50 PM
Tue, Jun 30
63 °FClear.7 mph83%30.01 "Hg10 mi
11:20 PM64 °FPassing clouds.5 mph83%30.01 "HgN/A
10:50 PM66 °FClear.8 mph73%30.01 "Hg10 mi
10:20 PM68 °FSunny.8 mph69%30.01 "Hg10 mi
9:50 PM72 °FPassing clouds.8 mph61%30.01 "HgN/A
9:20 PM73 °FSunny.12 mph57%30.01 "Hg10 mi
8:50 PM75 °FSunny.13 mph57%30.01 "Hg10 mi
8:20 PM75 °FPassing clouds.13 mph61%30.01 "HgN/A
7:50 PM77 °FSunny.13 mph57%29.98 "Hg10 mi
7:20 PM77 °FPassing clouds.10 mph61%30.01 "HgN/A
6:50 PM79 °FPassing clouds.10 mph58%30.01 "HgN/A
5:50 PM79 °FPassing clouds.12 mph61%30.01 "HgN/A
5:20 PM79 °FPassing clouds.13 mph61%30.01 "HgN/A
4:50 PM81 °FPassing clouds.12 mph58%30.01 "HgN/A
3:50 PM81 °FPassing clouds.9 mph58%30.04 "HgN/A
3:20 PM81 °FPassing clouds.10 mph58%30.04 "HgN/A
2:50 PM79 °FPassing clouds.12 mph58%30.04 "HgN/A
1:50 PM79 °FPassing clouds.13 mph58%30.07 "HgN/A
1:20 PM77 °FPassing clouds.13 mph57%30.07 "HgN/A
12:50 PM77 °FPassing clouds.10 mph57%30.07 "HgN/A
12:20 PM75 °FPassing clouds.10 mph61%30.07 "HgN/A
11:50 AM75 °FPassing clouds.10 mph61%30.09 "HgN/A
11:20 AM75 °FPassing clouds.10 mph57%30.09 "HgN/A
10:50 AM73 °FPassing clouds.10 mph57%30.09 "HgN/A
10:20 AM70 °FPassing clouds.8 mph64%30.09 "HgN/A
9:50 AM72 °FPassing clouds.6 mph65%30.09 "HgN/A
9:20 AM70 °FPassing clouds.8 mph69%30.09 "HgN/A
8:50 AM66 °FPassing clouds.7 mph73%30.09 "HgN/A
8:20 AM64 °FSunny.7 mph78%30.09 "Hg10 mi
7:50 AM64 °FPassing clouds.6 mph78%30.09 "HgN/A
7:20 AM63 °FPassing clouds.3 mph77%30.09 "HgN/A
6:50 AM63 °FPassing clouds.3 mph77%30.09 "HgN/A
6:20 AM61 °FSunny.6 mph77%30.09 "Hg10 mi
Weather by CustomWeather, © 2015

See weather overviewHow to use our weather pages